Regional Weather Roundup
Issued by NWS San Diego, CA

Home | Current Version | Previous Version | Text Only | Print | Product List | Glossary On
Versions: 1 2 3 4 5 6 7 8 9 10 11 12 13 14 15 16 17 18 19 20 21 22 23 24 25 26 27 28 29 30 31 32 33 34 35 36 37 38 39 40 41 42 43 44 45 46 47 48 49 50
379
ASUS46 KSGX 222211
RWRSGX

SAN DIEGO HOURLY WEATHER ROUNDUP
NATIONAL WEATHER SERVICE SAN DIEGO CA
200 PM PST MON JAN 22 2018

NOTE: "FAIR" INDICATES FEW OR NO CLOUDS BELOW 12,000 FEET WITH NO
SIGNIFICANT WEATHER AND/OR OBSTRUCTIONS TO VISIBILITY.

CAZ042-043-060-061-PZZ750-775-222300-

GREATER SAN DIEGO AREA

CITY           SKY/WX    TMP DP  RH WIND       PRES   REMARKS
SAN DIEGO AP   SUNNY     64  34  32 NW10      30.17F
NATIONAL CITY    N/A     64  40  40 W5        30.17F
CHULA VISTA      N/A     66  38  36 W5        30.08F
IMPERIAL BEACH SUNNY     63  40  42 NW14      30.16F
BROWN FIELD    SUNNY     65  32  29 W9        30.15F
MIRAMAR MCAS   SUNNY     68  32  26 NW9       30.15F
MONTGOMERY FLD SUNNY     66  30  26 NW9       30.16F
GILLESPIE FLD  SUNNY     68  27  21 W8        30.15F

$$

NORTH SAN DIEGO COUNTY

CITY           SKY/WX    TMP DP  RH WIND       PRES   REMARKS
CAMP PENDLETON SUNNY     65  30  27 SW9       30.15F
OCEANSIDE AP   SUNNY     64  35  34 W12       30.15F
OCEANSIDE HBR    N/A     60  42  50 CALM      30.19F
CARLSBAD       SUNNY     61  43  51 W8        30.15F
DEL MAR          N/A     64  47  53 CALM      30.18F
LA JOLLA SCRIP   N/A     60  44  55 NW3       30.16F
FALLBROOK        N/A     67  35  31 CALM      30.15F
ESCONDIDO        N/A     66  34  30 SW6       30.16F
SAN MARCOS       N/A     66  36  33 W5        30.19F
POWAY            N/A     68  32  26 NW2       30.17F

$$

EAST SAN DIEGO COUNTY

CITY           SKY/WX    TMP DP  RH WIND       PRES   REMARKS
RAMONA         SUNNY     65  24  21 CALM      30.15F
SANTEE LAKES     N/A     68  33  27 W9        30.15F
LA MESA          N/A     65  32  29 W3        30.10F
JAMUL            N/A     65  26  23 CALM      30.17F
DESCANSO N       N/A     55  17  22 E2        30.16F
MT. LAGUNA OBS   N/A     38   7  26 NE12      30.21S WCI  31
CAMPO            N/A     57  10  15 E23       30.12F

$$

ORANGE COUNTY AND THE LOS ANGELES BASIN

CITY           SKY/WX    TMP DP  RH WIND       PRES   REMARKS
JOHN WAYNE AP  SUNNY     67  30  25 SW12      30.16F
LAGUNA BEACH     N/A     62  47  57 CALM      30.12F
HUNTINGTON BCH   N/A     65  38  36 W3        30.18F
LOS ALAMITOS   SUNNY     71  19  14 W5        30.16F
FULLERTON      SUNNY     70  19  14 N3        30.15F
LONG BEACH     SUNNY     71  16  12 N5        30.17F
L.A. AP        SUNNY     65  36  34 W12       30.18F
L.A. DOWNTOWN  SUNNY     68  24  19 CALM      30.16F

$$

THE INLAND EMPIRE

CITY           SKY/WX    TMP DP  RH WIND       PRES   REMARKS
CORONA         SUNNY     70  18  13 VRB5      30.16F
CHINO          SUNNY     69  24  18 NW7       30.17F
ONTARIO        SUNNY     66  16  14 W5        30.16F
SAN BERNARDINO SUNNY     68  16  13 CALM      30.17F
RIVERSIDE AP   SUNNY     69  16  13 E6        30.16F
MARCH ARB      SUNNY     64  16  15 NE6       30.16F
HORSETHIEF CYN   N/A     65  12  12 CALM      30.20F
PERRIS           N/A     64  24  22 NE5       30.13F
HEMET EAST       N/A     62  13  15 CALM      30.23F
FRENCH VALLEY  FAIR      64  12  13 N3        30.16F
TEMECULA         N/A     66  26  21 NE2       30.17F

$$

SAN BERNARDINO AND RIVERSIDE COUNTY MOUNTAINS

CITY           SKY/WX    TMP DP  RH WIND       PRES   REMARKS
BIG BEAR AP    SUNNY     41   9  26 NE7       30.21F
ANGELUS OAKS     N/A     45  17  32 CALM      30.24F

$$

SOUTHERN DESERT INCLUDING THE COACHELLA VALLEY

CITY           SKY/WX    TMP DP  RH WIND       PRES   REMARKS
PALM SPRINGS   SUNNY     68  12  11 W6        30.20F
THOUSAND PALMS   N/A     67  18  15 W2        30.17F
PALM DESERT      N/A     71  18  13 CALM      28.33F
THERMAL        SUNNY     70  12  10 W6        30.18F
BLYTHE         SUNNY     63  16  16 NW7G17    30.20F
IMPERIAL AP    SUNNY     65  15  14 NW6       30.20F
EL CENTRO NAS  MOSUNNY   66  10  11 W9        30.22F
YUMA AZ        MOSUNNY   65  16  15 N9        30.18F
MEXICALI       SUNNY     64  14  14 NW10      30.20F

$$

UPPER DESERT

CITY           SKY/WX    TMP DP  RH WIND       PRES   REMARKS
HESPERIA         N/A     55  17  23 N3        30.43F
APPLE VALLEY     N/A     57  17  21 SW2       30.34F
PALMDALE       SUNNY     56  20  24 VRB3      30.24F
LANCASTER      SUNNY     56  22  26 N6        30.25F
EDWARDS AFB    SUNNY     54  13  19 NE3       30.23F
DAGGETT        SUNNY     58  14  17 E3        30.23F
29 PALMS N     SUNNY     59   7  12 N5        30.28F
NEEDLES        SUNNY     64  15  15 N16       30.21F

$$

REGIONAL REPORTS

CITY           SKY/WX    TMP DP  RH WIND       PRES   REMARKS
SANTA BARBARA  SUNNY     62  44  51 SE6       30.19F
SANDBERG       SUNNY     50  18  28 N16G30    30.25S
LAS VEGAS NV   MOSUNNY   52  21  29 VRB3      30.25F
PHOENIX AZ     PTSUNNY   58  20  22 VRB5      30.15F
TIJUANA        SUNNY     64  27  24 NW13      30.18F
ENSENADA NW      N/A     64  32  30 W1        30.06F

$$

OFFSHORE ISLANDS

CITY           SKY/WX    TMP DP  RH WIND       PRES   REMARKS
CATALINA ARPT    N/A     61  24  24 N6        30.19F
SAN CLEMENTE I SUNNY     64  48  56 NW10      30.20F
SAN NICOLAS IS MOSUNNY   61  44  53 NW18      30.19F

$$

MARINE AND OFFSHORE BUOY REPORTS

STATION/POSITION SKY/WX   TEMP    WIND        PRES    VSBY  SWELL
                          AIR SEA DIR/SP/G                  HT/PER/DIR
                          (F)     (DEG/KT/KT) (MB)    (MI)  (FT/S/D)
TANNER BANKS               58 59              1023.3
S CLEMENTE BASIN           60 62  330/  8/ 12 1021.9F         7/300/16
SAN NICOLAS IS.               58                N/A           8/310/14
SO. S. ROSA ISLA           57 56  310/ 21/ 27 1022.5F        10/310/14
W. S. BARBARA CH           56     320/ 23/ 27 1023.3
M. S. BARBARA CH           59     220/  4/  6 1023.3
S. MONICA BASIN               60  290/ 12/ 14 1021.9
S PEDRO CHANNEL               61                N/A           2/270/12
CMP PENDLETON NS              60                N/A           2/250/11
OCEANSIDE OFFSHR              61                N/A           2/270/12
TORREY PINES OTR              61                N/A           2/260/17
SAN DIEGO BAY                 64              1022.0F
POINT LOMA SOUTH              61                N/A           3/280/12

$$





USA.gov is the U.S. government's official web portal to all federal, state and local government web resources and services.